Date String (YYYY-MM-DD hh:mm:ss) UTC,Instrument flags,absolute air pressure of the measurement (hPa),sample flow rate (lpm),inlet stack bypass flow (lpm),air temperature of the measurement (°C),ambient temperature measured by the external sensor (°C),aerosol sample conditioner tube jacket temperature (°C),OPC LED temperature (°C),internal box temperature (°C),relative humidity of the measurement (%),span deviation,mass concentration of particles derived from Lorenz-Mie calculation of OPC scattering (μg/m³),mass concentration of particles derived from Lorenz-Mie calculation of OPC scattering (μg/m³),mass concentration of particles derived from Lorenz-Mie calculation of OPC scattering (μg/m³)
DateTimeUTC,F1_M11,P_M11,Q1_M11,Q2_M11,T1_M11,T2_M11,T3_M11,T4_M11,T5_M11,U1_M11,ZSPAN_M11,X0_M11,X2_M11,X1_M11
2024-04-01 19:00:00,SystemResetWarning,0821.1,5.00,000.00,020.8,020.2,000.0,029.2,022.6,25.2,0000.0,0005.30,0003.52,0003.33
2024-04-01 19:01:00,SystemResetWarning,0821.1,4.99,000.00,020.8,020.2,000.0,029.2,022.6,24.9,0000.0,0005.41,0003.59,0003.40
2024-04-01 19:02:00,SystemResetWarning,0821.1,4.99,000.00,020.8,020.3,000.0,029.2,022.7,25.1,0000.0,0005.35,0003.59,0003.43
2024-04-01 19:03:00,SystemResetWarning,0821.0,5.00,000.00,020.8,020.3,000.0,029.2,022.7,25.4,0000.0,0005.42,0003.62,0003.46
2024-04-01 19:04:00,SystemResetWarning,0821.1,5.01,000.00,020.8,020.3,000.0,029.2,022.7,24.9,0000.0,0005.50,0003.66,0003.51
2024-04-01 19:05:00,SystemResetWarning,0821.1,5.01,000.00,020.8,020.3,000.0,029.3,022.7,25.8,0000.0,0005.56,0003.70,0003.56
2024-04-01 19:06:00,SystemResetWarning,0821.1,5.01,000.00,020.8,020.3,000.0,029.3,022.7,26.5,0000.0,0005.52,0003.71,0003.57
2024-04-01 19:07:00,SystemResetWarning,0821.1,5.00,000.00,020.9,020.3,000.0,029.3,022.7,26.9,0000.0,0004.61,0003.68,0003.56
2024-04-01 19:08:00,SystemResetWarning,0821.0,5.00,000.00,020.9,020.3,000.0,029.3,022.7,26.1,0000.0,0004.57,0003.66,0003.52
2024-04-01 19:09:00,SystemResetWarning,0821.1,5.00,000.00,020.9,020.3,000.0,029.3,022.7,25.4,0000.0,0004.45,0003.61,0003.49
2024-04-01 19:10:00,SystemResetWarning,0821.2,4.99,000.00,020.9,020.3,000.0,029.3,022.7,25.2,0000.0,0004.55,0003.60,0003.47
2024-04-01 19:11:00,SystemResetWarning,0821.5,4.99,000.00,020.9,020.3,000.0,029.3,022.7,25.0,0000.0,0004.57,0003.59,0003.45
2024-04-01 19:12:00,SystemResetWarning,0821.5,5.01,000.00,020.9,020.3,000.0,029.3,022.7,24.6,0000.0,0004.63,0003.60,0003.45
2024-04-01 19:13:00,SystemResetWarning,0821.3,5.00,000.00,020.9,020.3,000.0,029.3,022.7,24.6,0000.0,0004.76,0003.62,0003.44
2024-04-01 19:14:00,SystemResetWarning,0821.3,4.99,000.00,020.9,020.3,000.0,029.3,022.8,24.7,0000.0,0004.82,0003.64,0003.45
2024-04-01 19:15:00,SystemResetWarning,0821.3,5.00,000.00,021.0,020.3,000.0,029.4,022.8,25.4,0000.0,0004.80,0003.64,0003.45
2024-04-01 19:16:00,SystemResetWarning,0821.5,5.01,000.00,021.0,020.4,000.0,029.4,022.8,25.4,0000.0,0004.78,0003.64,0003.44
2024-04-01 19:17:00,SystemResetWarning,0821.1,5.00,000.00,021.0,020.4,000.0,029.4,022.8,25.9,0000.0,0004.75,0003.64,0003.45
2024-04-01 19:18:00,SystemResetWarning,0821.1,4.99,000.00,021.0,020.4,000.0,029.4,022.8,26.4,0000.0,0004.67,0003.63,0003.47
2024-04-01 19:19:00,SystemResetWarning,0821.1,4.99,000.00,021.0,020.4,000.0,029.4,022.8,25.1,0000.0,0004.70,0003.65,0003.49
2024-04-01 19:20:00,SystemResetWarning,0821.1,5.00,000.00,021.0,020.4,000.0,029.4,022.8,25.0,0000.0,0004.76,0003.68,0003.51
2024-04-01 19:21:00,SystemResetWarning,0821.1,5.00,000.00,021.0,020.4,000.0,029.4,022.8,24.6,0000.0,0004.60,0003.67,0003.52
2024-04-01 19:22:00,SystemResetWarning,0821.2,5.01,000.00,021.0,020.5,000.0,029.4,022.9,24.8,0000.0,0004.57,0003.68,0003.54
2024-04-01 19:23:00,SystemResetWarning,0821.2,5.01,000.00,021.0,020.5,000.0,029.4,022.9,24.6,0000.0,0005.12,0003.71,0003.56
2024-04-01 19:24:00,SystemResetWarning,0821.1,5.00,000.00,021.0,020.5,000.0,029.5,022.9,24.4,0000.0,0005.10,0003.72,0003.60
2024-04-01 19:25:00,SystemResetWarning,0821.1,4.99,000.00,021.1,020.5,000.0,029.5,022.9,23.9,0000.0,0005.22,0003.76,0003.63
2024-04-01 19:26:00,SystemResetWarning,0821.1,4.99,000.00,021.1,020.5,000.0,029.5,022.9,23.5,0000.0,0005.57,0003.82,0003.67
2024-04-01 19:27:00,SystemResetWarning,0821.1,5.00,000.00,021.1,020.5,000.0,029.5,022.9,22.8,0000.0,0005.76,0003.86,0003.69
2024-04-01 19:28:00,SystemResetWarning,0821.1,5.00,000.00,021.1,020.5,000.0,029.5,022.9,22.3,0000.0,0005.83,0003.87,0003.69
2024-04-01 19:29:00,SystemResetWarning,0821.1,5.01,000.00,021.1,020.5,000.0,029.5,022.9,22.8,0000.0,0005.92,0003.88,0003.68
2024-04-01 19:30:00,SystemResetWarning,0821.1,5.00,000.00,021.1,020.5,000.0,029.5,023.0,22.8,0000.0,0005.90,0003.87,0003.68
2024-04-01 19:31:00,SystemResetWarning,0821.1,5.01,000.00,021.1,020.6,000.0,029.5,023.0,23.3,0000.0,0005.85,0003.86,0003.67
2024-04-01 19:32:00,SystemResetWarning,0821.2,4.99,000.00,021.1,020.6,000.0,029.5,023.0,23.7,0000.0,0005.81,0003.84,0003.65
2024-04-01 19:33:00,SystemResetWarning,0821.2,4.99,000.00,021.2,020.6,000.0,029.5,023.0,23.9,0000.0,0005.85,0003.84,0003.65
2024-04-01 19:34:00,SystemResetWarning,0821.1,5.00,000.00,021.2,020.6,000.0,029.6,023.0,23.1,0000.0,0005.45,0003.84,0003.65
2024-04-01 19:35:00,SystemResetWarning,0821.1,5.00,000.00,021.2,020.6,000.0,029.6,023.0,23.4,0000.0,0005.31,0003.84,0003.65
2024-04-01 19:36:00,SystemResetWarning,0821.1,5.00,000.00,021.2,020.6,000.0,029.6,023.0,23.9,0000.0,0005.25,0003.82,0003.64
2024-04-01 19:37:00,SystemResetWarning,0821.1,5.00,000.00,021.2,020.6,000.0,029.6,023.0,22.6,0000.0,0004.99,0003.79,0003.63
2024-04-01 19:38:00,SystemResetWarning,0821.6,5.01,000.00,021.2,020.6,000.0,029.6,023.0,22.1,0000.0,0004.77,0003.78,0003.64
2024-04-01 19:39:00,SystemResetWarning,0821.0,5.01,000.00,021.2,020.6,000.0,029.6,023.0,22.4,0000.0,0004.83,0003.81,0003.67
2024-04-01 19:40:00,SystemResetWarning,0821.0,4.99,000.00,021.2,020.6,000.0,029.6,023.0,22.5,0000.0,0004.80,0003.82,0003.69
2024-04-01 19:41:00,SystemResetWarning,0821.0,4.99,000.00,021.2,020.6,000.0,029.6,023.0,22.4,0000.0,0004.92,0003.85,0003.71
2024-04-01 19:42:00,SystemResetWarning,0821.1,5.00,000.00,021.2,020.6,000.0,029.6,023.0,22.0,0000.0,0004.95,0003.86,0003.73
2024-04-01 19:43:00,SystemResetWarning,0821.0,5.01,000.00,021.2,020.6,000.0,029.6,023.0,22.9,0000.0,0005.02,0003.91,0003.78
2024-04-01 19:44:00,SystemResetWarning,0821.3,5.00,000.00,021.2,020.6,000.0,029.6,023.0,23.5,0000.0,0005.10,0003.96,0003.83
2024-04-01 19:45:00,SystemResetWarning,0821.1,5.01,000.00,021.2,020.6,000.0,029.6,023.0,24.4,0000.0,0005.23,0004.02,0003.88
2024-04-01 19:46:00,SystemResetWarning,0821.1,5.00,000.00,021.2,020.6,000.0,029.6,023.0,24.5,0000.0,0005.40,0004.08,0003.93
2024-04-01 19:47:00,SystemResetWarning,0821.1,4.99,000.00,021.2,020.6,000.0,029.7,023.0,23.8,0000.0,0005.52,0004.13,0003.98
2024-04-01 19:48:00,SystemResetWarning,0821.1,5.00,000.00,021.2,020.6,000.0,029.7,023.0,23.6,0000.0,0005.68,0004.20,0004.02
2024-04-01 19:49:00,SystemResetWarning,0821.1,5.00,000.00,021.2,020.6,000.0,029.7,023.0,23.7,0000.0,0005.87,0004.27,0004.08
2024-04-01 19:50:00,SystemResetWarning,0821.2,5.00,000.00,021.2,020.6,000.0,029.7,023.0,24.1,0000.0,0005.92,0004.31,0004.12
2024-04-01 19:51:00,SystemResetWarning,0821.2,5.00,000.00,021.2,020.6,000.0,029.7,023.0,23.8,0000.0,0006.39,0004.37,0004.18
2024-04-01 19:52:00,SystemResetWarning,0821.2,5.00,000.00,021.2,020.6,000.0,029.7,023.0,23.9,0000.0,0007.30,0004.43,0004.23
2024-04-01 19:53:00,SystemResetWarning,0821.2,5.01,000.00,021.2,020.6,000.0,029.7,023.0,23.2,0000.0,0007.50,0004.49,0004.28
2024-04-01 19:54:00,SystemResetWarning,0821.2,5.00,000.00,021.2,020.6,000.0,029.7,023.0,24.1,0000.0,0007.88,0004.56,0004.31
2024-04-01 19:55:00,SystemResetWarning,0821.2,5.00,000.00,021.3,020.6,000.0,029.7,023.0,23.3,0000.0,0008.09,0004.60,0004.33
2024-04-01 19:56:00,SystemResetWarning,0821.3,5.00,000.00,021.2,020.6,000.0,029.7,023.0,23.1,0000.0,0008.09,0004.60,0004.34
2024-04-01 19:57:00,SystemResetWarning,0821.2,5.00,000.00,021.2,020.5,000.0,029.7,023.0,22.7,0000.0,0008.10,0004.61,0004.35
2024-04-01 19:58:00,SystemResetWarning,0821.2,5.00,000.00,021.2,020.5,000.0,029.7,023.0,22.4,0000.0,0008.10,0004.62,0004.35
2024-04-01 19:59:00,SystemResetWarning,0821.2,5.00,000.00,021.2,020.5,000.0,029.7,023.0,22.9,0000.0,0008.64,0004.62,0004.36
